Time,TemperatureF,DewpointF,PressureIn,WindDirection,WindDirectionDegrees,WindSpeedMPH,WindSpeedGustMPH,Humidity,HourlyPrecipIn,Conditions,Clouds,dailyrainin,SoftwareType,DateUTC
2013-04-21 00:01:00,65.0,24.0,30.01,WNW,296,16.0,30.0,21,0.00,,,0.00,,2013-04-21 07:01:00,
2013-04-21 00:11:00,65.0,15.0,30.02,ENE,57,3.0,16.0,14,0.00,,,0.00,,2013-04-21 07:11:00,
2013-04-21 00:31:00,65.0,20.0,30.02,SSW,212,6.0,13.0,18,0.00,,,0.00,,2013-04-21 07:31:00,
2013-04-21 00:52:00,64.0,24.0,30.02,WSW,254,5.0,18.0,22,0.00,,,0.00,,2013-04-21 07:52:00,
2013-04-21 01:01:00,66.0,12.0,30.01,NNW,338,13.0,24.0,12,0.00,,,0.00,,2013-04-21 08:01:00,
2013-04-21 01:11:00,66.0,19.0,30.01,NNW,340,7.0,17.0,16,0.00,,,0.00,,2013-04-21 08:11:00,
2013-04-21 01:21:00,66.0,19.0,30.01,NNW,340,7.0,17.0,16,0.00,,,0.00,,2013-04-21 08:21:00,
2013-04-21 01:31:00,66.0,12.0,30.01,NW,321,10.0,16.0,12,0.00,,,0.00,,2013-04-21 08:31:00,
2013-04-21 01:52:00,63.0,30.0,30.01,WNW,289,13.0,18.0,29,0.00,,,0.00,,2013-04-21 08:52:00,
2013-04-21 02:01:00,63.0,29.0,30.01,West,277,19.0,26.0,28,0.00,,,0.00,,2013-04-21 09:01:00,
2013-04-21 02:11:00,62.0,30.0,30.01,WSW,243,12.0,20.0,30,0.00,,,0.00,,2013-04-21 09:11:00,
2013-04-21 02:21:00,62.0,30.0,30.01,WSW,243,12.0,20.0,30,0.00,,,0.00,,2013-04-21 09:21:00,
2013-04-21 02:32:00,62.0,31.0,30.01,WSW,251,17.0,23.0,31,0.00,,,0.00,,2013-04-21 09:32:00,
2013-04-21 02:42:00,62.0,31.0,30.01,WSW,251,17.0,23.0,31,0.00,,,0.00,,2013-04-21 09:42:00,
2013-04-21 02:52:00,59.0,32.0,30.00,WSW,245,20.0,29.0,36,0.00,,,0.00,,2013-04-21 09:52:00,
2013-04-21 03:02:00,58.0,33.0,29.99,SW,224,19.0,32.0,39,0.00,,,0.00,,2013-04-21 10:02:00,
2013-04-21 03:12:00,58.0,33.0,29.99,WSW,240,22.0,29.0,39,0.00,,,0.00,,2013-04-21 10:12:00,
2013-04-21 03:22:00,58.0,33.0,29.99,WSW,240,22.0,29.0,39,0.00,,,0.00,,2013-04-21 10:22:00,
2013-04-21 03:32:00,59.0,33.0,30.00,WSW,238,19.0,29.0,37,0.00,,,0.00,,2013-04-21 10:32:00,
2013-04-21 03:42:00,59.0,33.0,30.00,WSW,238,19.0,29.0,37,0.00,,,0.00,,2013-04-21 10:42:00,
2013-04-21 03:52:00,58.0,33.0,30.00,WSW,239,19.0,26.0,39,0.00,,,0.00,,2013-04-21 10:52:00,
2013-04-21 04:02:00,60.0,33.0,29.99,WSW,238,22.0,29.0,36,0.00,,,0.00,,2013-04-21 11:02:00,
2013-04-21 04:11:00,60.0,33.0,29.99,WSW,238,22.0,29.0,36,0.00,,,0.00,,2013-04-21 11:11:00,
2013-04-21 04:22:00,60.0,32.0,29.99,WSW,239,20.0,27.0,35,0.00,,,0.00,,2013-04-21 11:22:00,
2013-04-21 04:33:00,60.0,32.0,29.99,WSW,252,16.0,26.0,35,0.00,,,0.00,,2013-04-21 11:33:00,
2013-04-21 04:42:00,60.0,32.0,29.99,WSW,252,16.0,26.0,35,0.00,,,0.00,,2013-04-21 11:42:00,
2013-04-21 04:52:00,59.0,31.0,29.99,WSW,242,18.0,23.0,35,0.00,,,0.00,,2013-04-21 11:52:00,
2013-04-21 05:02:00,60.0,31.0,29.99,WSW,241,18.0,26.0,33,0.00,,,0.00,,2013-04-21 12:02:00,
2013-04-21 05:12:00,59.0,30.0,29.99,WSW,243,18.0,25.0,33,0.00,,,0.00,,2013-04-21 12:12:00,
2013-04-21 05:22:00,59.0,30.0,29.99,WSW,243,18.0,25.0,33,0.00,,,0.00,,2013-04-21 12:22:00,
2013-04-21 05:31:00,58.0,30.0,29.99,WSW,245,20.0,25.0,34,0.00,,,0.00,,2013-04-21 12:31:00,
2013-04-21 05:42:00,58.0,30.0,29.99,WSW,245,20.0,25.0,34,0.00,,,0.00,,2013-04-21 12:42:00,
2013-04-21 05:52:00,58.0,31.0,29.99,WSW,253,19.0,25.0,35,0.00,,,0.00,,2013-04-21 12:52:00,
2013-04-21 06:01:00,57.0,31.0,30.00,WSW,251,19.0,24.0,37,0.00,,,0.00,,2013-04-21 13:01:00,
2013-04-21 06:11:00,57.0,30.0,30.00,WSW,244,16.0,24.0,36,0.00,,,0.00,,2013-04-21 13:11:00,
2013-04-21 06:32:00,58.0,31.0,30.00,WSW,239,16.0,22.0,35,0.00,,,0.00,,2013-04-21 13:32:00,
2013-04-21 06:42:00,58.0,31.0,30.00,WSW,239,16.0,22.0,35,0.00,,,0.00,,2013-04-21 13:42:00,
2013-04-21 06:52:00,58.0,30.0,30.01,WSW,248,10.0,17.0,34,0.00,,,0.00,,2013-04-21 13:52:00,
2013-04-21 07:01:00,59.0,31.0,30.02,WSW,246,11.0,16.0,34,0.00,,,0.00,,2013-04-21 14:01:00,
2013-04-21 07:11:00,59.0,31.0,30.02,WSW,246,11.0,16.0,34,0.00,,,0.00,,2013-04-21 14:11:00,
2013-04-21 07:21:00,60.0,30.0,30.03,WSW,254,8.0,13.0,32,0.00,,,0.00,,2013-04-21 14:21:00,
2013-04-21 07:31:00,61.0,31.0,30.03,SW,234,10.0,14.0,32,0.00,,,0.00,,2013-04-21 14:31:00,
2013-04-21 08:01:00,62.0,32.0,30.04,WSW,239,4.0,11.0,32,0.00,,,0.00,,2013-04-21 15:01:00,
2013-04-21 08:33:00,65.0,31.0,30.04,WSW,240,6.0,10.0,28,0.00,,,0.00,,2013-04-21 15:33:00,
2013-04-21 08:53:00,66.0,32.0,30.04,WSW,238,8.0,11.0,28,0.00,,,0.00,,2013-04-21 15:53:00,
2013-04-21 09:03:00,67.0,32.0,30.03,WSW,252,9.0,13.0,27,0.00,,,0.00,,2013-04-21 16:03:00,
2013-04-21 09:22:00,68.0,32.0,30.03,WSW,248,7.0,13.0,26,0.00,,,0.00,,2013-04-21 16:22:00,
2013-04-21 09:32:00,70.0,30.0,30.04,WSW,242,3.0,9.0,23,0.00,,,0.00,,2013-04-21 16:32:00,
2013-04-21 09:52:00,71.0,29.0,30.03,SW,235,2.0,8.0,21,0.00,,,0.00,,2013-04-21 16:52:00,
2013-04-21 10:01:00,72.0,31.0,30.03,East,81,5.0,9.0,22,0.00,,,0.00,,2013-04-21 17:01:00,
2013-04-21 10:12:00,72.0,29.0,30.04,ESE,119,6.0,10.0,20,0.00,,,0.00,,2013-04-21 17:12:00,
2013-04-21 10:22:00,72.0,29.0,30.04,ESE,119,6.0,10.0,20,0.00,,,0.00,,2013-04-21 17:22:00,
2013-04-21 10:32:00,72.0,26.0,30.04,South,170,3.0,9.0,18,0.00,,,0.00,,2013-04-21 17:32:00,
2013-04-21 10:41:00,72.0,26.0,30.04,South,170,3.0,9.0,18,0.00,,,0.00,,2013-04-21 17:41:00,
2013-04-21 10:52:00,73.0,27.0,30.04,SE,142,3.0,8.0,18,0.00,,,0.00,,2013-04-21 17:52:00,
2013-04-21 11:02:00,73.0,27.0,30.04,South,175,5.0,9.0,18,0.00,,,0.00,,2013-04-21 18:02:00,
2013-04-21 11:11:00,73.0,27.0,30.04,South,175,5.0,9.0,18,0.00,,,0.00,,2013-04-21 18:11:00,
2013-04-21 11:21:00,73.0,27.0,30.04,SE,124,3.0,9.0,18,0.00,,,0.00,,2013-04-21 18:21:00,
2013-04-21 11:32:00,75.0,26.0,30.04,ESE,122,4.0,10.0,16,0.00,,,0.00,,2013-04-21 18:32:00,
2013-04-21 11:42:00,75.0,26.0,30.04,ESE,122,4.0,10.0,16,0.00,,,0.00,,2013-04-21 18:42:00,
2013-04-21 11:52:00,75.0,27.0,30.04,ESE,108,5.0,11.0,17,0.00,,,0.00,,2013-04-21 18:52:00,
2013-04-21 12:02:00,76.0,27.0,30.03,SE,124,6.0,12.0,16,0.00,,,0.00,,2013-04-21 19:02:00,
2013-04-21 12:11:00,76.0,27.0,30.03,SE,124,6.0,12.0,16,0.00,,,0.00,,2013-04-21 19:11:00,
2013-04-21 12:21:00,76.0,27.0,30.03,SE,146,3.0,8.0,16,0.00,,,0.00,,2013-04-21 19:21:00,
2013-04-21 12:31:00,77.0,26.0,30.02,SSE,147,7.0,11.0,15,0.00,,,0.00,,2013-04-21 19:31:00,
2013-04-21 12:42:00,77.0,26.0,30.02,SSE,147,7.0,11.0,15,0.00,,,0.00,,2013-04-21 19:42:00,
2013-04-21 13:01:00,80.0,19.0,30.01,SSW,208,9.0,16.0,10,0.00,,,0.00,,2013-04-21 20:01:00,
2013-04-21 13:21:00,80.0,16.0,30.00,SSW,213,11.0,20.0,9,0.00,,,0.00,,2013-04-21 20:21:00,
2013-04-21 13:31:00,81.0,17.0,30.00,SW,228,10.0,16.0,9,0.00,,,0.00,,2013-04-21 20:31:00,
2013-04-21 13:52:00,81.0,27.0,30.02,SW,233,14.0,22.0,14,0.00,,,0.00,,2013-04-21 20:52:00,
2013-04-21 14:01:00,81.0,27.0,30.01,WSW,239,17.0,23.0,14,0.00,,,0.00,,2013-04-21 21:01:00,
2013-04-21 14:12:00,81.0,29.0,30.01,WSW,237,19.0,27.0,15,0.00,,,0.00,,2013-04-21 21:12:00,
2013-04-21 14:21:00,81.0,29.0,30.01,WSW,237,19.0,27.0,15,0.00,,,0.00,,2013-04-21 21:21:00,
2013-04-21 14:32:00,82.0,28.0,30.02,West,264,13.0,24.0,14,0.00,,,0.00,,2013-04-21 21:32:00,
2013-04-21 14:43:00,82.0,28.0,30.02,West,264,13.0,24.0,14,0.00,,,0.00,,2013-04-21 21:43:00,
2013-04-21 14:53:00,82.0,24.0,30.01,West,272,10.0,17.0,12,0.00,,,0.00,,2013-04-21 21:53:00,
2013-04-21 15:02:00,82.0,24.0,30.01,West,266,14.0,20.0,12,0.00,,,0.00,,2013-04-21 22:02:00,
2013-04-21 15:12:00,82.0,22.0,30.00,WNW,298,14.0,21.0,11,0.00,,,0.00,,2013-04-21 22:12:00,
2013-04-21 15:22:00,82.0,22.0,30.00,WNW,298,14.0,21.0,11,0.00,,,0.00,,2013-04-21 22:22:00,
2013-04-21 15:32:00,82.0,20.0,29.99,WNW,296,12.0,20.0,10,0.00,,,0.00,,2013-04-21 22:32:00,
2013-04-21 15:42:00,82.0,20.0,29.99,WNW,296,12.0,20.0,10,0.00,,,0.00,,2013-04-21 22:42:00,
2013-04-21 15:52:00,82.0,20.0,29.99,WNW,296,12.0,20.0,10,0.00,,,0.00,,2013-04-21 22:52:00,
2013-04-21 16:02:00,81.0,22.0,29.98,WNW,284,16.0,24.0,11,0.00,,,0.00,,2013-04-21 23:02:00,
2013-04-21 16:11:00,81.0,22.0,29.98,WNW,284,16.0,24.0,11,0.00,,,0.00,,2013-04-21 23:11:00,
2013-04-21 16:22:00,81.0,22.0,29.97,WNW,282,15.0,26.0,11,0.00,,,0.00,,2013-04-21 23:22:00,
2013-04-21 16:32:00,80.0,27.0,29.97,West,281,15.0,26.0,14,0.00,,,0.00,,2013-04-21 23:32:00,
2013-04-21 16:42:00,80.0,27.0,29.97,West,281,15.0,26.0,14,0.00,,,0.00,,2013-04-21 23:42:00,
2013-04-21 16:52:00,80.0,27.0,29.97,West,281,15.0,26.0,14,0.00,,,0.00,,2013-04-21 23:52:00,
2013-04-21 17:01:00,79.0,29.0,29.97,WNW,285,12.0,23.0,16,0.00,,,0.00,,2013-04-22 00:01:00,
2013-04-21 17:11:00,79.0,29.0,29.97,WNW,285,12.0,23.0,16,0.00,,,0.00,,2013-04-22 00:11:00,
2013-04-21 17:21:00,78.0,30.0,29.96,WNW,286,18.0,27.0,17,0.00,,,0.00,,2013-04-22 00:21:00,
2013-04-21 17:31:00,77.0,29.0,29.96,WNW,288,18.0,30.0,17,0.00,,,0.00,,2013-04-22 00:31:00,
2013-04-21 17:42:00,77.0,29.0,29.96,WNW,288,18.0,30.0,17,0.00,,,0.00,,2013-04-22 00:42:00,
2013-04-21 17:51:00,76.0,27.0,29.96,West,267,21.0,29.0,16,0.00,,,0.00,,2013-04-22 00:51:00,
2013-04-21 18:01:00,76.0,28.0,29.97,West,273,15.0,29.0,17,0.00,,,0.00,,2013-04-22 01:01:00,
2013-04-21 18:11:00,76.0,28.0,29.97,West,273,15.0,29.0,17,0.00,,,0.00,,2013-04-22 01:11:00,
2013-04-21 18:21:00,75.0,26.0,29.96,West,267,23.0,33.0,16,0.00,,,0.00,,2013-04-22 01:21:00,
2013-04-21 18:32:00,74.0,28.0,29.95,West,272,19.0,32.0,18,0.00,,,0.00,,2013-04-22 01:32:00,
2013-04-21 18:41:00,74.0,28.0,29.95,West,272,19.0,32.0,18,0.00,,,0.00,,2013-04-22 01:41:00,
2013-04-21 18:52:00,73.0,30.0,29.94,West,281,23.0,36.0,20,0.00,,,0.00,,2013-04-22 01:52:00,
2013-04-21 19:01:00,72.0,31.0,29.94,WNW,287,23.0,33.0,22,0.00,,,0.00,,2013-04-22 02:01:00,
2013-04-21 19:11:00,71.0,29.0,29.94,WNW,288,28.0,43.0,21,0.00,,,0.00,,2013-04-22 02:11:00,
2013-04-21 19:21:00,71.0,29.0,29.94,WNW,288,28.0,43.0,21,0.00,,,0.00,,2013-04-22 02:21:00,
2013-04-21 19:31:00,70.0,30.0,29.95,WNW,284,28.0,36.0,23,0.00,,,0.00,,2013-04-22 02:31:00,
2013-04-21 19:41:00,70.0,30.0,29.95,WNW,284,28.0,36.0,23,0.00,,,0.00,,2013-04-22 02:41:00,
2013-04-21 19:51:00,70.0,33.0,29.95,WNW,290,20.0,39.0,25,0.00,,,0.00,,2013-04-22 02:51:00,
2013-04-21 20:02:00,69.0,34.0,29.95,WNW,296,23.0,34.0,27,0.00,,,0.00,,2013-04-22 03:02:00,
2013-04-21 20:11:00,69.0,34.0,29.95,WNW,296,23.0,34.0,27,0.00,,,0.00,,2013-04-22 03:11:00,
2013-04-21 20:22:00,68.0,35.0,29.96,WNW,291,24.0,35.0,29,0.00,,,0.00,,2013-04-22 03:22:00,
2013-04-21 20:33:00,68.0,35.0,29.96,WNW,290,25.0,33.0,29,0.00,,,0.00,,2013-04-22 03:33:00,
2013-04-21 20:42:00,68.0,35.0,29.96,WNW,290,25.0,33.0,29,0.00,,,0.00,,2013-04-22 03:42:00,
2013-04-21 20:52:00,67.0,35.0,29.97,WNW,288,20.0,33.0,30,0.00,,,0.00,,2013-04-22 03:52:00,
2013-04-21 21:02:00,67.0,34.0,29.98,WNW,292,22.0,33.0,29,0.00,,,0.00,,2013-04-22 04:02:00,
2013-04-21 21:12:00,67.0,34.0,29.98,WNW,292,22.0,33.0,29,0.00,,,0.00,,2013-04-22 04:12:00,
2013-04-21 21:23:00,67.0,35.0,29.98,WNW,286,20.0,31.0,30,0.00,,,0.00,,2013-04-22 04:23:00,
2013-04-21 21:32:00,67.0,32.0,29.98,WNW,293,20.0,32.0,27,0.00,,,0.00,,2013-04-22 04:32:00,
2013-04-21 21:43:00,67.0,32.0,29.98,WNW,293,20.0,32.0,27,0.00,,,0.00,,2013-04-22 04:43:00,
2013-04-21 21:52:00,67.0,30.0,29.98,WNW,295,25.0,37.0,25,0.00,,,0.00,,2013-04-22 04:52:00,
2013-04-21 22:02:00,68.0,28.0,29.98,WNW,291,19.0,33.0,22,0.00,,,0.00,,2013-04-22 05:02:00,
2013-04-21 22:11:00,67.0,28.0,29.98,WNW,293,20.0,32.0,23,0.00,,,0.00,,2013-04-22 05:11:00,
2013-04-21 22:22:00,67.0,28.0,29.98,WNW,293,20.0,32.0,23,0.00,,,0.00,,2013-04-22 05:22:00,
2013-04-21 22:32:00,67.0,29.0,29.98,WNW,293,25.0,36.0,24,0.00,,,0.00,,2013-04-22 05:32:00,
2013-04-21 22:42:00,67.0,29.0,29.98,WNW,293,25.0,36.0,24,0.00,,,0.00,,2013-04-22 05:42:00,
2013-04-21 22:52:00,68.0,23.0,29.97,WNW,290,25.0,35.0,18,0.00,,,0.00,,2013-04-22 05:52:00,
2013-04-21 23:02:00,68.0,24.0,29.98,WNW,289,26.0,37.0,19,0.00,,,0.00,,2013-04-22 06:02:00,
2013-04-21 23:32:00,68.0,19.0,29.97,WNW,290,26.0,37.0,15,0.00,,,0.00,,2013-04-22 06:32:00,
2013-04-21 23:52:00,68.0,20.0,29.97,WNW,289,26.0,40.0,16,0.00,,,0.00,,2013-04-22 06:52:00,